| time (UTC) | temp F | wind direction | speed MPH | gust MPH | rain 1hr in | rain 24hr in | rain mn in | humidity % | barometer mb |
| 20260505022408 | 73 | 164 | 0.0 | 2.0 | 0.00 | 0.00 | 0.00 | 78 | 1011.2 |
| 20260505021342 | 74 | 164 | 0.0 | 2.0 | 0.00 | 0.00 | 0.00 | 77 | 1011.2 |
| 20260505020351 | 74 | 164 | 0.0 | 2.0 | 0.00 | 0.00 | 0.00 | 76 | 1011.0 |
| 20260505015419 | 74 | 164 | 0.0 | 3.0 | 0.00 | 0.00 | 0.00 | 75 | 1010.9 |
| 20260505014330 | 75 | 171 | 1.0 | 5.0 | 0.00 | 0.00 | 0.00 | 74 | 1010.9 |
| 20260505013401 | 75 | 159 | 1.0 | 5.0 | 0.00 | 0.00 | 0.00 | 73 | 1010.9 |
| 20260505012333 | 76 | 160 | 1.0 | 6.0 | 0.00 | 0.00 | 0.00 | 71 | 1011.0 |
| 20260505011403 | 76 | 157 | 1.0 | 3.0 | 0.00 | 0.00 | 0.00 | 71 | 1010.9 |
| 20260505010324 | 77 | 179 | 2.0 | 5.0 | 0.00 | 0.00 | 0.00 | 69 | 1010.7 |
| 20260505004348 | 78 | 180 | 6.0 | 11.0 | 0.00 | 0.00 | 0.00 | 67 | 1010.8 |
| 20260505003403 | 78 | 155 | 7.0 | 11.0 | 0.00 | 0.00 | 0.00 | 66 | 1010.6 |
| 20260505002326 | 79 | 196 | 4.0 | 11.0 | 0.00 | 0.00 | 0.00 | 65 | 1010.6 |
| 20260505001401 | 79 | 178 | 5.0 | 12.0 | 0.00 | 0.00 | 0.00 | 64 | 1010.6 |
| 20260505000415 | 79 | 142 | 5.0 | 10.0 | 0.00 | 0.00 | 0.00 | 64 | 1010.5 |
| 20260504235355 | 79 | 180 | 5.0 | 12.0 | 0.00 | 0.00 | 0.00 | 64 | 1010.8 |
| 20260504234416 | 80 | 184 | 5.0 | 14.0 | 0.00 | 0.00 | 0.00 | 63 | 1010.9 |
| 20260504233327 | 80 | 204 | 3.0 | 14.0 | 0.00 | 0.00 | 0.00 | 64 | 1011.0 |
| 20260504232342 | 80 | 215 | 7.0 | 13.0 | 0.00 | 0.00 | 0.00 | 63 | 1011.2 |
| 20260504231407 | 79 | 172 | 6.0 | 12.0 | 0.00 | 0.00 | 0.00 | 63 | 1011.4 |
| 20260504230343 | 79 | 150 | 7.0 | 14.0 | 0.00 | 0.00 | 0.00 | 63 | 1011.5 |
| 20260504225344 | 80 | 208 | 4.0 | 15.0 | 0.00 | 0.00 | 0.00 | 63 | 1011.5 |
| 20260504224405 | 80 | 192 | 7.0 | 14.0 | 0.00 | 0.00 | 0.00 | 63 | 1011.8 |
| 20260504223421 | 80 | 207 | 5.0 | 16.0 | 0.00 | 0.00 | 0.00 | 64 | 1011.9 |
| 20260504222329 | 80 | 194 | 5.0 | 15.0 | 0.00 | 0.00 | 0.00 | 63 | 1012.0 |
| 20260504221401 | 79 | 207 | 5.0 | 11.0 | 0.00 | 0.00 | 0.00 | 64 | 1012.0 |
| 20260504220422 | 80 | 224 | 7.0 | 17.0 | 0.00 | 0.00 | 0.00 | 63 | 1011.9 |
| 20260504215347 | 80 | 198 | 6.0 | 12.0 | 0.00 | 0.00 | 0.00 | 63 | 1011.9 |
| 20260504214417 | 79 | 133 | 5.0 | 12.0 | 0.00 | 0.00 | 0.00 | 64 | 1012.0 |
| 20260504213342 | 79 | 165 | 6.0 | 14.0 | 0.00 | 0.00 | 0.00 | 63 | 1012.0 |
| 20260504212418 | 79 | 219 | 6.0 | 17.0 | 0.00 | 0.00 | 0.00 | 64 | 1012.2 |
| 20260504211331 | 80 | 269 | 7.0 | 12.0 | 0.00 | 0.00 | 0.00 | 63 | 1012.4 |
| 20260504210405 | 79 | 135 | 6.0 | 13.0 | 0.00 | 0.00 | 0.00 | 64 | 1012.7 |
| 20260504205325 | 79 | 187 | 6.0 | 11.0 | 0.00 | 0.00 | 0.00 | 64 | 1013.0 |
| 20260504203358 | 79 | 188 | 8.0 | 14.0 | 0.00 | 0.00 | 0.00 | 64 | 1013.2 |
| 20260504202416 | 79 | 169 | 6.0 | 15.0 | 0.00 | 0.00 | 0.00 | 64 | 1013.3 |
| 20260504201340 | 79 | 180 | 4.0 | 14.0 | 0.00 | 0.00 | 0.00 | 65 | 1013.4 |
| 20260504200420 | 79 | 201 | 6.0 | 12.0 | 0.00 | 0.00 | 0.00 | 63 | 1013.5 |
| 20260504193404 | 79 | 200 | 9.0 | 14.0 | 0.00 | 0.00 | 0.00 | 63 | 1013.9 |
| 20260504192334 | 79 | 192 | 7.0 | 15.0 | 0.00 | 0.00 | 0.00 | 62 | 1013.8 |
| 20260504191413 | 79 | 161 | 8.0 | 15.0 | 0.00 | 0.00 | 0.00 | 64 | 1014.1 |
| 20260504190329 | 79 | 205 | 6.0 | 11.0 | 0.00 | 0.00 | 0.00 | 63 | 1014.2 |
| 20260504185354 | 79 | 232 | 4.0 | 17.0 | 0.00 | 0.00 | 0.00 | 63 | 1014.3 |
| 20260504184422 | 79 | 200 | 8.0 | 14.0 | 0.00 | 0.00 | 0.00 | 62 | 1014.3 |
| 20260504183341 | 79 | 210 | 7.0 | 13.0 | 0.00 | 0.00 | 0.00 | 63 | 1014.7 |
| 20260504182343 | 79 | 173 | 7.0 | 14.0 | 0.00 | 0.00 | 0.00 | 63 | 1014.9 |
| 20260504181411 | 78 | 229 | 8.0 | 14.0 | 0.00 | 0.00 | 0.00 | 64 | 1015.0 |
| 20260504180326 | 77 | 173 | 6.0 | 14.0 | 0.00 | 0.00 | 0.00 | 65 | 1015.0 |
| 20260504175350 | 77 | 196 | 7.0 | 15.0 | 0.00 | 0.00 | 0.00 | 65 | 1015.2 |
| 20260504174417 | 77 | 173 | 8.0 | 16.0 | 0.00 | 0.00 | 0.00 | 66 | 1015.2 |
| 20260504172348 | 76 | 213 | 6.0 | 14.0 | 0.00 | 0.00 | 0.00 | 67 | 1015.3 |
| 20260504171400 | 75 | 234 | 7.0 | 15.0 | 0.00 | 0.00 | 0.00 | 69 | 1015.7 |
| 20260504170332 | 74 | 254 | 5.0 | 16.0 | 0.00 | 0.00 | 0.00 | 71 | 1015.8 |
| 20260504150329 | 68 | 209 | 6.0 | 10.0 | 0.00 | 0.00 | 0.00 | 80 | 1016.8 |
| 20260504141324 | 66 | 194 | 6.0 | 14.0 | 0.00 | 0.00 | 0.00 | 81 | 1016.6 |
| 20260504130403 | 62 | 163 | 2.0 | 4.0 | 0.00 | 0.00 | 0.00 | 85 | 1016.9 |
| 20260504110325 | 60 | 177 | 1.0 | 3.0 | 0.00 | 0.00 | 0.00 | 85 | 1016.2 |
| 20260504100340 | 60 | 177 | 0.0 | 3.0 | 0.00 | 0.00 | 0.00 | 85 | 1016.3 |
| 20260504080341 | 63 | 155 | 2.0 | 6.0 | 0.00 | 0.00 | 0.00 | 78 | 1017.4 |
| 20260504070351 | 64 | 158 | 4.0 | 9.0 | 0.00 | 0.00 | 0.00 | 75 | 1018.0 |
| 20260504050330 | 65 | 169 | 3.0 | 7.0 | 0.00 | 0.00 | 0.00 | 70 | 1019.2 |
| 20260504044342 | 65 | 140 | 3.0 | 9.0 | 0.00 | 0.00 | 0.00 | 69 | 1019.2 |
| 20260504043416 | 66 | 163 | 3.0 | 7.0 | 0.00 | 0.00 | 0.00 | 68 | 1019.3 |
| 20260504042341 | 66 | 126 | 4.0 | 9.0 | 0.00 | 0.00 | 0.00 | 67 | 1019.3 |
| 20260504041410 | 66 | 169 | 5.0 | 11.0 | 0.00 | 0.00 | 0.00 | 67 | 1019.4 |
| 20260504035352 | 66 | 152 | 3.0 | 6.0 | 0.00 | 0.00 | 0.00 | 65 | 1019.4 |
| 20260504034325 | 66 | 153 | 3.0 | 4.0 | 0.00 | 0.00 | 0.00 | 64 | 1019.4 |
| 20260504033359 | 66 | 170 | 3.0 | 7.0 | 0.00 | 0.00 | 0.00 | 64 | 1019.4 |
| 20260504032416 | 65 | 159 | 3.0 | 6.0 | 0.00 | 0.00 | 0.00 | 64 | 1019.4 |
| 20260504031343 | 63 | 174 | 3.0 | 6.0 | 0.00 | 0.00 | 0.00 | 68 | 1019.3 |
| 20260504030358 | 61 | 167 | 0.0 | 1.0 | 0.00 | 0.00 | 0.00 | 72 | 1019.3 |
| 20260504025421 | 61 | 167 | 0.0 | 1.0 | 0.00 | 0.00 | 0.00 | 73 | 1019.2 |
| 20260504024342 | 62 | 167 | 0.0 | 0.0 | 0.00 | 0.00 | 0.00 | 72 | 1019.1 |
| 20260504023416 | 62 | 167 | 0.0 | 0.0 | 0.00 | 0.00 | 0.00 | 70 | 1019.2 |